Location: Bijele Vode
(45.2833°N, 16.2000°E)
Time: 21:45:49
(UTC+00:00)

Nauka - Pass Details

Date: 30 September 2021
Orbit: 417 x 423 km, 51.6° (Epoch: 19 October)

Event Time Altitude Azimuth Distance (km) Brightness Sun altitude
Rises 19:03:55 0° 297° (WNW) 2,366 ? -26.0°
Reaches altitude 10° 19:06:01 10° 294° (WNW) 1,501 ? -26.4°
Enters shadow 19:07:38 26° 287° (WNW) 876 ? -26.6°
